Weather History for KPUB - April, 2013

Change the Weather History Date:

Saturday, April 13, 2013

  Actual Average Record
Temperature  
Mean Temperature 56 °F 50 °F  
Max Temperature 74 °F 66 °F 90 °F (2006)
Min Temperature 37 °F 33 °F 11 °F (1997)
Degree Days  
Heating Degree Days 9 15  
Month to date heating degree days 249 222  
Since 1 July heating degree days 5221 5227  
Cooling Degree Days 0 0  
Month to date cooling degree days 0 0  
Year to date cooling degree days 0 0  
Growing Degree Days 5 (Base 50)    
Moisture  
Dew Point 25 °F    
Average Humidity 47    
Maximum Humidity 85    
Minimum Humidity 9    
Precipitation  
Precipitation 0.00 in 0.04 in 1.99 in (1967)
Month to date precipitation 0.04 0.51  
Year to date precipitation 0.94 2.09  
Snow  
Snow 0.00 in 0.10 in 5.20 in (2014)
Month to date snowfall 0.8 2.0  
Since 1 July snowfall 21.2 29.5  
Snow Depth 0.00 in    
Sea Level Pressure  
Sea Level Pressure 29.58 in    
Wind  
Wind Speed 6 mph (SSE)    
Max Wind Speed 16 mph    
Max Gust Speed 23 mph    
Visibility 10 miles    
Events      
T = Trace of Precipitation, MM = Missing Value Source: NWS Daily Summary

Daily Weather History Graph

Daily Weather History Graph

Search for Another Location

Airport or City:

Trip Planner

Search our weather history database for the weather conditions in past years. The results will help you decide how hot, cold, wet, or windy it might be!

Date:

Astronomy

Apr. 13, 2013 Rise Set
Actual Time 6:24 AM MDT 7:32 PM MDT
Civil Twilight 5:57 AM MDT 8:00 PM MDT
Nautical Twilight 5:25 AM MDT 8:32 PM MDT
Astronomical Twilight 4:51 AM MDT 9:06 PM MDT
Moon 8:20 AM MDT (4/13) 10:56 PM MDT (4/13)
Length of Visible Light 14h 02m
Length of Day
13h 08m
Waxing Crescent, 11% of the Moon is Illuminated
Apr 13
Waxing Crescent
Apr 18
First Quarter
Apr 25
Full
May 2
Last Quarter
May 9
New

Hourly Weather History & Observations

Time (MDT) Temp. Windchill Dew Point Humidity Pressure Visibility Wind Dir Wind Speed Gust Speed Precip Events Conditions
12:53 AM 37.9 °F 33.5 °F 33.1 °F 83% 29.97 in 10.0 mi ENE 5.8 mph - N/A   Overcast
1:53 AM 37.9 °F - 33.1 °F 83% 29.94 in 10.0 mi Calm Calm - N/A   Overcast
2:53 AM 37.9 °F - 33.1 °F 83% 29.91 in 10.0 mi Calm Calm - N/A   Overcast
3:53 AM 37.9 °F 34.4 °F 33.1 °F 83% 29.88 in 10.0 mi SE 4.6 mph - N/A   Overcast
4:53 AM 37.9 °F 33.5 °F 33.1 °F 83% 29.85 in 10.0 mi SSE 5.8 mph - N/A   Overcast
5:53 AM 37.0 °F 31.6 °F 33.1 °F 86% 29.82 in 10.0 mi South 6.9 mph - N/A   Overcast
6:53 AM 37.9 °F 34.4 °F 33.1 °F 83% 29.83 in 10.0 mi ESE 4.6 mph - N/A   Overcast
7:53 AM 39.0 °F 35.7 °F 33.1 °F 79% 29.82 in 10.0 mi ESE 4.6 mph - N/A   Overcast
8:53 AM 41.0 °F 39.0 °F 34.0 °F 76% 29.79 in 10.0 mi South 3.5 mph - N/A   Overcast
9:16 AM 42.8 °F - 33.8 °F 70% 29.81 in 10.0 mi Calm Calm - N/A   Partly Cloudy
9:53 AM 45.0 °F - 35.1 °F 68% 29.74 in 10.0 mi Calm Calm - N/A   Clear
10:53 AM 51.1 °F - 34.0 °F 52% 29.69 in 10.0 mi ESE 4.6 mph - N/A   Clear
11:53 AM 55.9 °F - 30.9 °F 39% 29.63 in 10.0 mi Calm Calm - N/A   Clear
12:53 PM 62.1 °F - 28.9 °F 29% 29.55 in 10.0 mi Variable 6.9 mph - N/A   Clear
1:53 PM 68.0 °F - 19.9 °F 16% 29.47 in 10.0 mi East 5.8 mph - N/A   Clear
2:53 PM 70.0 °F - 18.0 °F 14% 29.42 in 10.0 mi East 4.6 mph - N/A   Clear
3:53 PM 72.0 °F - 15.1 °F 11% 29.37 in 10.0 mi SSW 9.2 mph - N/A   Clear
4:53 PM 72.0 °F - 15.1 °F 11% 29.33 in 10.0 mi SSE 9.2 mph - N/A   Clear
5:53 PM 73.4 °F - 12.2 °F 10% 29.41 in 10.0 mi WSW 11.5 mph - N/A   Clear
6:53 PM 71.1 °F - 12.9 °F 11% 29.29 in 10.0 mi SW 13.8 mph - N/A   Clear
7:53 PM 68.0 °F - 15.1 °F 13% 29.29 in 10.0 mi WSW 13.8 mph - N/A   Clear
8:53 PM 60.1 °F - 14.0 °F 16% 29.31 in 10.0 mi West 8.1 mph - N/A   Clear
9:53 PM 55.0 °F - 14.0 °F 20% 29.33 in 10.0 mi NNE 5.8 mph - N/A   Clear
10:53 PM 55.9 °F - 14.0 °F 19% 29.28 in 10.0 mi East 5.8 mph - N/A   Clear
11:53 PM 64.0 °F - 15.1 °F 15% 29.22 in 10.0 mi WSW 5.8 mph - N/A   Clear